Showing default

SECOR 8 (EGRS 8), 2520

Orbit data source: Space-Track

SECOR 8 (EGRS 8), 2520 is an American payload satellite in LEO that was launched on Wed, 05 Oct 1966 UTC via an ATLAS SLV-3 AGENA D launch vehicle from the Air Force Western Test Range (AFWTR). Payload-class satellites include a variety of spacecraft equipped with specific instruments for various scientific and technological missions. These include communications satellites like Starlink; space stations such as the ISS; scientific satellites like the Hubble; Earth observation satellites from companies like Planet Labs, Umbra, and HawkEye 360; GPS; miniature CubeSats for education and research; and military/defense satellites.

Loading next visibility...
Identifier
2520, 1966-089B
Orbit
LEO
Country
Flag of USUS
Related business
Manufacturer
ITT
Mission
Spacecraft
Bus & Motor
SECOR, Unknown motor
Mass
18 kg wet, 18 kg dry
Launch date (UTC)
1966-10-05 (59 years ago)
Launch vehicle
ATLAS SLV-3 AGENA D
Launch site
Air Force Western Test Range (AFWTR)
Object type
Payload
Rocket body
Debris
Shape & HBR
Unknown
Radar Cross Section
Medium (>0.1 m² and <1 m²)

Expand to show TLE details & history
Last TLE update: 4 days ago

TLE from 4 days ago
0 SECOR 8 (EGRS 8)
1 02520U 66089B   25309.67526971  .00000005  00000-0  17097-2 0  9991
2 02520  89.8413  32.7544 0015029 170.3327 189.7815  8.58894221362769
Epoch: 2025-11-05T16:12Z
TLE epoch observation values (Epoch: 2025-11-05T16:12:23.302Z)
Latitude
-0.00008°
Longitude
104.51277°
Altitude
3,710.805 km
Speed
6.282 km/s
True Right ascension
02h 11m 01s
True Declination
0° 00' 00"
Sunlit
Object was in full shadow at epoch
Visualization orbit readout
Latitude
Unknown
Longitude
Unknown
Altitude
Unknown
Speed
Unknown
Apparent Right ascension
Unknown
Apparent Declination
Unknown
Sunlit
N/A
Visualization observer readout
Local Sidereal Time
09:00:21
Azimuth
Unknown
Elevation
Unknown
Doppler factor
Unknown
Orbital elements
Apogee altitude
3,706.655 km
Perigee altitude
3,676.387 km
Semi-major axis
10,069.658 km
Eccentricity
0.0015
Inclination
89.8413°
RAAN
32.7544°
Arg. of periapsis
170.3327°
True anomaly
189.7523°
Mean anomaly
189.7815°
Eccentric anomaly
189.76689°
Mean motion
2.14793 °/min
Orbital period
167.6 mins
BSTAR
0.0017097
Loading maneuver chart data...
Computing Atmospheric mass density...
Loading historical data...
Loading historical data...
Loading historical data...
Loading historical data...
Loading historical data...
Loading historical data...
Loading historical data...
Other satellites on launch #89 in the year 1966 (1966-10-05 UTC)

Documentation

Showing up to 5 results
|